When you browse on this site, cookies collect data to enhance your experience and personalize the content and advertising you see.
Visit our Privacy Policy to learn more. By continuing to use the site, you agree to this use of cookies and data.
  • In Spain
  • List of Countries
  • For 7 days
  • Water Temperature
  • Satellite Maps
  • Weather Map
  • Weather Widgets
  • user-avatar
    Login

    Hourly Weather Albena

    Today, 20 January, Sunday

    Time Temperature Precipitation Wind Pressure Humidity
    00:00 +2°C° 0.3 mm 5 mps 751 mmHg 92%
    01:00 +2°C° 0.3 mm 5 mps 750 mmHg 92%
    02:00 +2°C° 0 mm 5 mps 750 mmHg 92%
    03:00 +2°C° 0.1 mm 5 mps 750 mmHg 93%
    04:00 +2°C° 0.1 mm 5 mps 749 mmHg 94%
    05:00 +3°C° 0.1 mm 4 mps 749 mmHg 94%
    06:00 +4°C° 0.1 mm 4 mps 749 mmHg 95%
    07:00 +3°C° 0.1 mm 5 mps 749 mmHg 96%
    08:00 +4°C° 0 mm 4 mps 748 mmHg 96%
    09:00 +4°C° 0 mm 4 mps 748 mmHg 96%
    10:00 +5°C° 0 mm 4 mps 748 mmHg 96%
    11:00 +5°C° 0 mm 4 mps 748 mmHg 96%
    12:00 +6°C° 0 mm 4 mps 748 mmHg 95%
    13:00 +6°C° 0 mm 4 mps 747 mmHg 94%
    14:00 +7°C° 0 mm 3 mps 747 mmHg 94%
    15:00 +7°C° 0.1 mm 3 mps 746 mmHg 95%
    16:00 +7°C° 0.1 mm 3 mps 746 mmHg 95%
    17:00 +7°C° 0.1 mm 2 mps 746 mmHg 96%
    18:00 +7°C° 0 mm 2 mps 746 mmHg 96%
    19:00 +7°C° 0 mm 2 mps 745 mmHg 96%
    20:00 +7°C° 0 mm 3 mps 745 mmHg 95%
    21:00 +7°C° 0.1 mm 3 mps 745 mmHg 95%
    22:00 +7°C° 0.1 mm 3 mps 745 mmHg 95%
    23:00 +7°C° 0.1 mm 3 mps 745 mmHg 95%

    Tomorrow, 21 January, Monday

    Time Temperature Precipitation Wind Pressure Humidity
    00:00 +5°C° 0 mm 3 mps 745 mmHg 95%
    01:00 +5°C° 0 mm 3 mps 745 mmHg 95%
    02:00 +4°C° 0 mm 3 mps 745 mmHg 95%
    03:00 +3°C° 0 mm 4 mps 745 mmHg 93%
    04:00 +2°C° 0 mm 5 mps 745 mmHg 92%
    05:00 +1°C° 0 mm 5 mps 746 mmHg 91%
    06:00 +1°C° 0 mm 5 mps 746 mmHg 90%
    07:00 0°C° 0 mm 5 mps 746 mmHg 89%
    08:00 0°C° 0 mm 5 mps 747 mmHg 89%
    09:00 +1°C° 0 mm 5 mps 747 mmHg 85%
    10:00 +1°C° 0 mm 5 mps 748 mmHg 81%
    11:00 +2°C° 0 mm 6 mps 748 mmHg 78%
    12:00 +2°C° 0 mm 5 mps 748 mmHg 76%
    13:00 +3°C° 0 mm 5 mps 749 mmHg 74%
    14:00 +4°C° 0 mm 4 mps 749 mmHg 72%
    15:00 +3°C° 0 mm 4 mps 749 mmHg 74%
    16:00 +3°C° 0 mm 4 mps 749 mmHg 76%
    17:00 +1°C° 0 mm 4 mps 750 mmHg 78%
    18:00 0°C° 0 mm 4 mps 750 mmHg 80%
    19:00 -1°C° 0 mm 4 mps 750 mmHg 81%
    20:00 0°C° 0 mm 3 mps 750 mmHg 83%
    21:00 -1°C° 0 mm 3 mps 751 mmHg 84%
    22:00 -1°C° 0 mm 3 mps 751 mmHg 84%
    23:00 -1°C° 0 mm 3 mps 751 mmHg 85%

    Day after tomorrow, 22 January, Tuesday

    Time Temperature Precipitation Wind Pressure Humidity
    00:00 -1°C° 0 mm 3 mps 751 mmHg 85%
    01:00 -1°C° 0 mm 2 mps 751 mmHg 86%
    02:00 -1°C° 0 mm 2 mps 751 mmHg 87%
    03:00 -1°C° 0 mm 2 mps 751 mmHg 88%
    04:00 -1°C° 0 mm 2 mps 750 mmHg 89%
    05:00 -1°C° 0 mm 2 mps 750 mmHg 91%
    06:00 -1°C° 0 mm 3 mps 750 mmHg 90%
    07:00 0°C° 0 mm 3 mps 750 mmHg 89%
    08:00 0°C° 0 mm 3 mps 750 mmHg 87%
    09:00 +1°C° 0 mm 3 mps 750 mmHg 86%
    10:00 0°C° 0 mm 4 mps 750 mmHg 84%
    11:00 +1°C° 0 mm 4 mps 750 mmHg 83%
    12:00 +1°C° 0 mm 4 mps 749 mmHg 83%
    13:00 +1°C° 0 mm 4 mps 748 mmHg 82%
    14:00 +3°C° 0 mm 4 mps 748 mmHg 82%
    15:00 +1°C° 0 mm 4 mps 747 mmHg 84%
    16:00 +1°C° 0 mm 4 mps 747 mmHg 86%
    17:00 +1°C° 0 mm 5 mps 746 mmHg 88%
    18:00 +1°C° 0.1 mm 5 mps 746 mmHg 89%
    19:00 +2°C° 0.1 mm 5 mps 746 mmHg 90%
    20:00 +2°C° 0.1 mm 5 mps 746 mmHg 91%
    21:00 +2°C° 0.1 mm 5 mps 745 mmHg 92%
    22:00 +2°C° 0.1 mm 6 mps 745 mmHg 92%
    23:00 +3°C° 0.1 mm 6 mps 744 mmHg 93%

    23 January, Wednesday

    Time Temperature Precipitation Wind Pressure Humidity
    00:00 +3°C° 0 mm 6 mps 744 mmHg 93%
    01:00 +3°C° 0 mm 6 mps 743 mmHg 93%
    02:00 +3°C° 0 mm 6 mps 742 mmHg 93%
    03:00 +4°C° 0.8 mm 6 mps 742 mmHg 94%
    04:00 +4°C° 0.8 mm 7 mps 741 mmHg 96%
    05:00 +4°C° 0.8 mm 7 mps 740 mmHg 97%
    06:00 +4°C° 2.5 mm 7 mps 740 mmHg 96%
    07:00 +5°C° 2.5 mm 7 mps 739 mmHg 94%
    08:00 +5°C° 2.5 mm 7 mps 739 mmHg 93%
    09:00 +6°C° 0 mm 7 mps 739 mmHg 89%
    10:00 +7°C° 0 mm 8 mps 738 mmHg 85%
    11:00 +9°C° 0 mm 8 mps 738 mmHg 81%
    12:00 +10°C° 0 mm 8 mps 738 mmHg 76%
    13:00 +11°C° 0 mm 8 mps 738 mmHg 72%
    14:00 +12°C° 0 mm 8 mps 737 mmHg 67%
    15:00 +11°C° 0 mm 8 mps 738 mmHg 69%
    16:00 +10°C° 0 mm 7 mps 738 mmHg 72%
    17:00 +9°C° 0 mm 7 mps 738 mmHg 74%
    18:00 +9°C° 0 mm 7 mps 738 mmHg 77%
    19:00 +9°C° 0 mm 7 mps 738 mmHg 80%
    20:00 +8°C° 0 mm 7 mps 739 mmHg 82%
    21:00 +8°C° 0 mm 7 mps 739 mmHg 84%
    22:00 +8°C° 0 mm 7 mps 739 mmHg 87%
    23:00 +8°C° 0 mm 7 mps 739 mmHg 89%

    24 January, Thursday

    Time Temperature Precipitation Wind Pressure Humidity
    00:00 +8°C° 0 mm 6 mps 739 mmHg 89%
    01:00 +7°C° 0 mm 6 mps 739 mmHg 89%
    02:00 +7°C° 0 mm 5 mps 739 mmHg 90%
    03:00 +7°C° 0.2 mm 5 mps 739 mmHg 92%
    04:00 +7°C° 0.2 mm 4 mps 739 mmHg 95%
    05:00 +7°C° 0.2 mm 4 mps 739 mmHg 97%
    06:00 +7°C° 0.3 mm 4 mps 739 mmHg 97%
    07:00 +7°C° 0.3 mm 4 mps 739 mmHg 97%
    08:00 +7°C° 0.3 mm 4 mps 739 mmHg 97%
    09:00 +7°C° 0.1 mm 4 mps 739 mmHg 92%
    10:00 +8°C° 0.1 mm 5 mps 739 mmHg 88%
    11:00 +9°C° 0.1 mm 5 mps 739 mmHg 84%
    12:00 +9°C° 0 mm 5 mps 738 mmHg 80%
    13:00 +9°C° 0 mm 5 mps 737 mmHg 77%
    14:00 +10°C° 0 mm 6 mps 737 mmHg 73%
    15:00 +9°C° 0 mm 5 mps 737 mmHg 77%
    16:00 +8°C° 0 mm 5 mps 737 mmHg 81%
    17:00 +7°C° 0 mm 4 mps 737 mmHg 86%
    18:00 +6°C° 0 mm 5 mps 737 mmHg 87%
    19:00 +6°C° 0 mm 5 mps 737 mmHg 89%
    20:00 +5°C° 0 mm 6 mps 737 mmHg 91%
    21:00 +5°C° 0 mm 6 mps 737 mmHg 91%
    22:00 +5°C° 0 mm 5 mps 737 mmHg 91%
    23:00 +5°C° 0 mm 5 mps 737 mmHg 91%

    25 January, Friday

    Time Temperature Precipitation Wind Pressure Humidity
    00:00 +5°C° 0 mm 5 mps 737 mmHg 92%
    01:00 +3°C° 0 mm 5 mps 737 mmHg 93%
    02:00 +3°C° 0 mm 5 mps 737 mmHg 93%
    03:00 +3°C° 0 mm 5 mps 737 mmHg 94%
    04:00 +3°C° 0 mm 5 mps 737 mmHg 94%
    05:00 +3°C° 0 mm 5 mps 737 mmHg 95%
    06:00 +3°C° 0 mm 5 mps 737 mmHg 95%
    07:00 +3°C° 0 mm 5 mps 737 mmHg 95%
    08:00 +4°C° 0 mm 4 mps 737 mmHg 95%
    09:00 +5°C° 0.5 mm 4 mps 737 mmHg 94%
    10:00 +5°C° 0.5 mm 3 mps 738 mmHg 93%
    11:00 +7°C° 0.5 mm 3 mps 738 mmHg 93%
    12:00 +7°C° 0.1 mm 2 mps 738 mmHg 93%
    13:00 +8°C° 0.1 mm 2 mps 737 mmHg 93%
    14:00 +8°C° 0.1 mm 2 mps 737 mmHg 92%
    15:00 +8°C° 0 mm 2 mps 737 mmHg 93%
    16:00 +8°C° 0 mm 3 mps 736 mmHg 93%
    17:00 +8°C° 0 mm 3 mps 736 mmHg 94%
    18:00 +8°C° 0.1 mm 3 mps 736 mmHg 94%
    19:00 +8°C° 0.1 mm 3 mps 736 mmHg 93%
    20:00 +7°C° 0.1 mm 3 mps 736 mmHg 93%
    21:00 +6°C° 1.5 mm 4 mps 736 mmHg 94%
    22:00 +6°C° 1.5 mm 4 mps 736 mmHg 95%
    23:00 +6°C° 1.5 mm 5 mps 736 mmHg 96%
    Show more